Terug naar catalogus

ADDCUBE

ActiefAmateurradioSSO
NORAD 64590·PAYLOAD·🇯🇵 Japan

Gelanceerd Jun 23, 2025 vanaf Vandenberg Space Force Base

Loading…

Volgende Passages (komende 24 uur)

TLE

VersSource: Space-Track

Epoch: Sep 14, 2026, 02:58 UTC

1 64590U 25135BQ  26257.12391965  .00001520  00000-0  14679-3 0  9996
2 64590  97.7792  10.6830 0006259  47.9650 312.2102 14.94308668 67180

Volg ADDCUBE in realtime met AllMySat

Download on the App Store